Location: Chevoux
(46.3801°N, 4.9476°E)
Time: 17:19:44
(UTC+00:00)

CSL-04 Rocket - Pass Details

Date: 28 January 2021
Orbit: 806 x 860 km, 98.9° (Epoch: 01 March)

Event Time Altitude Azimuth Distance (km) Brightness Sun altitude
Rises 17:56:14 0° 141° (SE) 3,375 6.6 -13.4°
Reaches altitude 10° 17:58:41 10° 134° (SE) 2,453 5.8 -13.8°
Maximum altitude 18:03:44 40° 66° (ENE) 1,228 4.1 -14.7°
Drops below altitude 10° 18:08:51 10° 358° (N) 2,496 6.1 -15.6°
Sets 18:11:22 0° 352° (N) 3,441 6.9 -16.0°
